Location: Torino
(45.0678°N, 7.6825°E)
Time: 10:32:23
(UTC+02:00)

HTV-X1 - Visible Passes

Search period start: 21 May 2026 00:00
Search period end: 31 May 2026 00:00
Orbit: 372 x 382 km, 51.6° (Epoch: 20 May)

Date Brightness Start Highest point End Pass type
(mag) Time Alt. Az. Time Alt. Az. Time Alt. Az.
21 May ? 22:14:47 10° NW 22:17:47 46° NNE 22:20:05 15° E visible
21 May ? 23:50:51 10° W 23:52:09 19° W 23:52:09 19° W visible
22 May ? 22:49:28 10° WNW 22:52:30 61° SW 22:53:13 44° SSE visible
23 May ? 21:48:16 10° WNW 21:51:20 65° NNE 21:54:16 11° ESE visible
23 May ? 23:24:43 10° W 23:26:21 17° WSW 23:26:21 17° WSW visible
24 May ? 22:22:59 10° WNW 22:25:53 38° SW 22:27:25 22° SSE visible
25 May ? 22:58:55 10° WSW 23:00:05 12° SW 23:00:34 11° SW visible
26 May ? 21:56:27 10° W 21:59:03 25° SW 22:01:39 10° SSE visible
